User: anonymous   Login
Location: Acton
(51.4942°N, 0.2232°W)
Time: 13:11:15
(UTC+00:00)
Language:

Landsat 7 - Orbit

View from above orbital plane
View from above orbital plane
View from above satellite
View from above satellite

Ground track
Ground track

The orbit data is extracted from the following two-line orbital elements,

1 25682U 99020A   20331.12275643  .00000045  00000-0  19592-4 0  9991
2 25682  98.0624  28.8627 0001738  83.7682 276.3725 14.57187902149785
Epoch (UTC): 26 November 2020 02:56:46
Eccentricity: 0.0001738
inclination: 98.0624°
perigee height: 701 km
apogee height: 703 km
right ascension of ascending node: 28.8627°
argument of perigee: 83.7682°
revolutions per day: 14.57187902
mean anomaly at epoch: 276.3725°
orbit number at epoch: 14978

The dashed part of the orbit path shows where the satellite is in the earth's shadow,  

DLR